Погода в Чериктее

Россия / Республика Саха (Якутия)     63°13′52″N   130°59′02″E
темп.,
°C
ветер,
м/с
пор.,
м/с
влажн.,
%
обл.,
%
осадки,
мм/ч
давл.,
гПа
погр.,
м
27 февраля, сб
сб2700:00−35всв239820 0.0 103436
03:00−35в239810 0.0 103248
06:00−36в369815 0.0 103298
09:00−34в259635 0.0 1030168
12:00−28всв35931 0.0 1029306
15:00−26всв369220 0.0 1026326
18:00−29в229662 0.0 102526
21:00−30всв249680 0.0 102286
28 февраля, вс
вс2800:00−30всв1292100 0.0 102023
03:00−29ссз1188100 0.0 101719
06:00−28з2290100 0.0 101748
09:00−27з1392100 0.0 101798
12:00−23зюз238998 0.0 1018285
15:00−23з349397 0.0 1019390
18:00−29з2397100 0.0 102136
21:00−29зюз2598100 0.0 1022197
1 марта, пн
пн100:00−29зюз2498100 0.1 1023245
03:00−30юз2498100 0.1 1023173
06:00−30юз1398100 0.1 1023178
09:00−29юз1295100 0.1 1024283
12:00−27ююз1287100 0.0 1024556
15:00−27юз1287100 0.1 1024655
18:00−29юз1197100 0.1 102519
21:00−30юз119999 0.1 102519
2 марта, вт
вт200:00−30ююв0198100 0.0 102519
03:00−31ююз119994 0.1 102519
06:00−31ююз119999 0.0 102519
09:00−31ююз119896 0.1 102562
12:00−27зюз128996 0.0 1025460
15:00−26з128698 0.0 1025661
18:00−28зюз1298100 0.1 102524
21:00−29з1299100 0.2 102623
3 марта, ср
ср300:00−30зюз1199100 0.1 102519
03:00−30з1199100 0.3 102519
06:00−30з1198100 0.1 102419
09:00−29з1197100 0.1 1023121
12:00−27з1291100 0.1 1022392
15:00−26з2392100 0.1 1020488
18:00−28з2598100 0.1 1019166
21:00−30з2698100 0.1 1018189